TimeCST,TemperatureF,Dew PointF,Humidity,Sea Level PressureIn,VisibilityMPH,Wind Direction,Wind SpeedMPH,Gust SpeedMPH,PrecipitationIn,Events,Conditions,WindDirDegrees,DateUTC
12:14 AM,14.0,12.2,93,29.56,0.2,Calm,Calm,-,N/A,Fog,Light Freezing Fog,0,2012-02-22 06:14:00
12:34 AM,14.0,14.0,100,29.56,0.2,Calm,Calm,-,N/A,Fog,Light Freezing Fog,0,2012-02-22 06:34:00
12:55 AM,15.8,14.0,93,29.55,4.0,Calm,Calm,-,N/A,,Scattered Clouds,0,2012-02-22 06:55:00
1:15 AM,14.0,12.2,93,29.55,5.0,Calm,Calm,-,N/A,,Clear,0,2012-02-22 07:15:00
1:35 AM,12.2,10.4,92,29.54,1.5,Calm,Calm,-,N/A,,Clear,0,2012-02-22 07:35:00
1:55 AM,12.2,10.4,92,29.54,2.5,Calm,Calm,-,N/A,,Scattered Clouds,0,2012-02-22 07:55:00
2:14 AM,10.4,8.6,92,29.54,0.2,Calm,Calm,-,N/A,Fog,Light Freezing Fog,0,2012-02-22 08:14:00
2:34 AM,10.4,8.6,92,29.53,0.2,Calm,Calm,-,N/A,Fog,Light Freezing Fog,0,2012-02-22 08:34:00
2:55 AM,10.4,8.6,92,29.52,0.2,Calm,Calm,-,N/A,Fog,Light Freezing Fog,0,2012-02-22 08:55:00
3:15 AM,10.4,8.6,92,29.52,0.2,Calm,Calm,-,N/A,Fog,Light Freezing Fog,0,2012-02-22 09:15:00
3:35 AM,10.4,8.6,92,29.51,0.2,Calm,Calm,-,N/A,Fog,Light Freezing Fog,0,2012-02-22 09:35:00
3:54 AM,12.2,10.4,92,29.51,0.5,Calm,Calm,-,N/A,Fog,Light Freezing Fog,0,2012-02-22 09:54:00
4:15 AM,12.2,12.2,100,29.50,4.0,Calm,Calm,-,N/A,,Scattered Clouds,0,2012-02-22 10:15:00
4:35 AM,14.0,12.2,93,29.50,3.0,Calm,Calm,-,N/A,,Clear,0,2012-02-22 10:35:00
4:55 AM,15.8,14.0,93,29.50,7.0,Calm,Calm,-,N/A,,Clear,0,2012-02-22 10:55:00
5:15 AM,15.8,14.0,93,29.49,7.0,Calm,Calm,-,N/A,,Clear,0,2012-02-22 11:15:00
5:34 AM,15.8,15.8,100,29.50,7.0,Calm,Calm,-,N/A,,Clear,0,2012-02-22 11:34:00
6:35 AM,15.8,12.2,86,29.50,7.0,Calm,Calm,-,N/A,,Clear,0,2012-02-22 12:35:00
6:54 AM,15.8,15.8,100,29.50,7.0,Calm,Calm,-,N/A,,Scattered Clouds,0,2012-02-22 12:54:00
7:15 AM,15.8,15.8,100,29.50,10.0,Calm,Calm,-,N/A,,Overcast,0,2012-02-22 13:15:00
7:34 AM,15.8,15.8,100,29.49,10.0,Calm,Calm,-,N/A,,Overcast,0,2012-02-22 13:34:00
7:54 AM,17.6,17.6,100,29.48,7.0,Calm,Calm,-,N/A,,Overcast,0,2012-02-22 13:54:00
8:55 AM,21.2,21.2,100,29.49,7.0,Calm,Calm,-,N/A,,Overcast,0,2012-02-22 14:55:00
9:35 AM,21.2,21.2,100,29.49,10.0,Calm,Calm,-,N/A,,Mostly Cloudy,0,2012-02-22 15:35:00
9:55 AM,23.0,21.2,93,29.49,10.0,Calm,Calm,-,N/A,,Mostly Cloudy,0,2012-02-22 15:55:00
10:15 AM,24.8,23.0,93,29.48,10.0,Calm,Calm,-,N/A,,Scattered Clouds,0,2012-02-22 16:15:00
10:35 AM,26.6,24.8,93,29.47,10.0,Calm,Calm,-,N/A,,Clear,0,2012-02-22 16:35:00
10:55 AM,26.6,24.8,93,29.47,10.0,Calm,Calm,-,N/A,,Clear,0,2012-02-22 16:55:00
11:15 AM,28.4,21.2,74,29.47,10.0,ESE,3.5,-,N/A,,Clear,110,2012-02-22 17:15:00
11:34 AM,30.2,23.0,75,29.46,10.0,SE,4.6,-,N/A,,Clear,130,2012-02-22 17:34:00
11:54 AM,30.2,24.8,80,29.46,10.0,ESE,5.8,-,N/A,,Scattered Clouds,120,2012-02-22 17:54:00
12:15 PM,30.2,21.2,69,29.45,10.0,ESE,4.6,-,N/A,,Mostly Cloudy,110,2012-02-22 18:15:00
12:35 PM,30.2,24.8,80,29.44,10.0,ESE,5.8,-,N/A,,Overcast,120,2012-02-22 18:35:00
12:55 PM,30.2,23.0,75,29.44,10.0,SE,4.6,-,N/A,,Overcast,140,2012-02-22 18:55:00
1:14 PM,30.2,24.8,80,29.43,10.0,SSE,4.6,-,N/A,,Overcast,160,2012-02-22 19:14:00
1:37 PM,32.0,24.8,75,29.42,10.0,South,4.6,-,N/A,,Mostly Cloudy,170,2012-02-22 19:37:00
1:54 PM,33.8,26.6,75,29.41,10.0,SSE,5.8,-,N/A,,Scattered Clouds,150,2012-02-22 19:54:00
2:14 PM,33.8,26.6,75,29.40,10.0,South,8.1,-,N/A,,Clear,170,2012-02-22 20:14:00
2:34 PM,35.6,26.6,70,29.39,10.0,SSE,9.2,-,N/A,,Clear,150,2012-02-22 20:34:00
2:55 PM,35.6,28.4,75,29.39,10.0,SE,9.2,-,N/A,,Clear,140,2012-02-22 20:55:00
3:15 PM,35.6,28.4,75,29.39,10.0,South,6.9,-,N/A,,Clear,170,2012-02-22 21:15:00
3:35 PM,35.6,28.4,75,29.39,10.0,SE,4.6,-,N/A,,Scattered Clouds,140,2012-02-22 21:35:00
3:55 PM,35.6,28.4,75,29.39,10.0,SSE,6.9,-,N/A,,Mostly Cloudy,150,2012-02-22 21:55:00
4:15 PM,35.6,30.2,81,29.38,10.0,SSE,6.9,-,N/A,,Mostly Cloudy,150,2012-02-22 22:15:00
4:35 PM,35.6,30.2,81,29.38,10.0,SE,4.6,-,N/A,,Scattered Clouds,140,2012-02-22 22:35:00
4:55 PM,35.6,30.2,81,29.38,10.0,SSE,3.5,-,N/A,,Mostly Cloudy,160,2012-02-22 22:55:00
5:15 PM,35.6,30.2,81,29.38,10.0,West,4.6,-,N/A,,Overcast,270,2012-02-22 23:15:00
5:34 PM,35.6,30.2,81,29.38,10.0,Calm,Calm,-,N/A,,Overcast,0,2012-02-22 23:34:00
5:54 PM,35.6,30.2,81,29.38,10.0,Calm,Calm,-,N/A,,Mostly Cloudy,0,2012-02-22 23:54:00
6:15 PM,33.8,30.2,87,29.39,10.0,Calm,Calm,-,N/A,,Scattered Clouds,0,2012-02-23 00:15:00
6:35 PM,30.2,28.4,93,29.39,10.0,ESE,4.6,-,N/A,,Scattered Clouds,120,2012-02-23 00:35:00
6:55 PM,30.2,28.4,93,29.39,10.0,Calm,Calm,-,N/A,,Mostly Cloudy,0,2012-02-23 00:55:00
7:15 PM,30.2,28.4,93,29.38,10.0,SE,3.5,-,N/A,,Overcast,130,2012-02-23 01:15:00
7:35 PM,30.2,28.4,93,29.39,10.0,SSE,3.5,-,N/A,,Overcast,150,2012-02-23 01:35:00
8:15 PM,30.2,28.4,93,29.39,10.0,Calm,Calm,-,N/A,,Overcast,0,2012-02-23 02:15:00
8:35 PM,28.4,26.6,93,29.38,10.0,Calm,Calm,-,N/A,,Mostly Cloudy,0,2012-02-23 02:35:00
8:55 PM,28.4,26.6,93,29.38,7.0,Calm,Calm,-,N/A,,Clear,0,2012-02-23 02:55:00
9:15 PM,28.4,28.4,100,29.38,10.0,Calm,Calm,-,N/A,,Clear,0,2012-02-23 03:15:00
9:35 PM,24.8,23.0,93,29.39,5.0,Calm,Calm,-,N/A,,Scattered Clouds,0,2012-02-23 03:35:00
10:15 PM,24.8,24.8,100,29.39,5.0,Calm,Calm,-,N/A,,Clear,0,2012-02-23 04:15:00
10:35 PM,26.6,26.6,100,29.39,4.0,Calm,Calm,-,N/A,,Clear,0,2012-02-23 04:35:00
10:54 PM,24.8,24.8,100,29.39,0.8,Calm,Calm,-,N/A,,Mist,0,2012-02-23 04:54:00
11:15 PM,21.2,21.2,100,29.38,0.2,NE,4.6,-,N/A,Fog,Light Freezing Fog,40,2012-02-23 05:15:00
11:35 PM,21.2,19.4,93,29.39,0.2,Calm,Calm,-,N/A,Fog,Light Freezing Fog,0,2012-02-23 05:35:00
11:55 PM,21.2,19.4,93,29.40,0.2,Calm,Calm,-,N/A,Fog,Light Freezing Fog,0,2012-02-23 05:55:00